Weather History for King Salmon, AK

Change the Weather History Date:

Wednesday, January 1, 2014

  Actual Average Record
Temperature  
Mean Temperature 31 °F 17 °F  
Max Temperature 37 °F 24 °F 47 °F (1968)
Min Temperature 24 °F - -42 °F (1975)
Degree Days  
Heating Degree Days 34 48  
Month to date heating degree days 34 48  
Since 1 July heating degree days 4277 4861  
Cooling Degree Days 0    
Month to date cooling degree days 0  
Year to date cooling degree days 0  
Moisture  
Dew Point 28 °F    
Average Humidity 0    
Maximum Humidity 0    
Minimum Humidity 0    
Precipitation  
Precipitation 0.14 in 0.03 in 0.31 in (1960)
Month to date precipitation 0.14 0.03  
Year to date precipitation 0.14 0.03  
Snow  
Snow 1.00 in 0.30 in 3.50 in (1998)
Month to date snowfall 1.0 0.3  
Since 1 July snowfall 15.8 19.6  
Snow Depth T in    
Sea Level Pressure  
Sea Level Pressure 29.18 in    
Wind  
Wind Speed 7 mph (WNW)    
Max Wind Speed 16 mph    
Max Gust Speed 23 mph    
Visibility 6 miles    
Events Rain , Snow    
T = Trace of Precipitation, MM = Missing Value Source: NWS Daily Summary

Daily Weather History Graph

Daily Weather History Graph

Search for Another Location

Airport:

Trip Planner

Search our weather history database for the weather conditions in past years. The results will help you decide how hot, cold, wet, or windy it might be!

Date:

Astronomy

Jan. 01, 2014 Rise Set
Actual Time 10:17 AM AKST 4:43 PM AKST
Civil Twilight 9:24 AM AKST 5:36 PM AKST
Nautical Twilight 8:31 AM AKST 6:30 PM AKST
Astronomical Twilight 7:41 AM AKST 7:19 PM AKST
Moon 9:56 AM AKST (1/1) 6:05 PM AKST (1/1)
Length of Visible Light 8h 12m
Length of Day
6h 26m
Waxing Crescent, 0% of the Moon is Illuminated
Jan 1
Waxing Crescent
Jan 7
First Quarter
Jan 15
Full
Jan 23
Last Quarter
Jan 30
New

Hourly Weather History & Observations

Time (AKST) Temp. Windchill Dew Point Humidity Pressure Visibility Wind Dir Wind Speed Gust Speed Precip Events Conditions
12:54 AM 36.3 °F 29.5 °F 33.4 °F 89% 28.81 in 9.0 mi North 9.2 mph - N/A Rain Light Rain
1:54 AM 35.6 °F 28.6 °F 33.8 °F 93% 28.81 in 10.0 mi NNW 9.2 mph 20.7 mph N/A Rain Light Rain
2:54 AM 35.4 °F 26.4 °F 33.6 °F 93% 28.82 in 10.0 mi North 13.8 mph 23.0 mph N/A Rain Light Rain
3:54 AM 34.7 °F 24.7 °F 33.6 °F 96% 28.85 in 10.0 mi NNW 16.1 mph - N/A Rain Light Rain
4:54 AM 34.2 °F 24.8 °F 33.6 °F 98% 28.87 in 10.0 mi NNW 13.8 mph - N/A Rain Light Rain
5:54 AM 31.6 °F 23.1 °F 31.5 °F 99% 28.90 in 10.0 mi NNW 10.4 mph - N/A   Overcast
6:54 AM 28.9 °F 21.1 °F 28.6 °F 99% 28.94 in 7.0 mi North 8.1 mph - N/A Snow Light Snow
7:54 AM 27.7 °F 18.8 °F 27.1 °F 98% 28.98 in 10.0 mi North 9.2 mph - N/A Snow Light Snow
8:54 AM 27.0 °F 18.7 °F 26.8 °F 99% 29.04 in 5.0 mi North 8.1 mph - N/A Snow Light Snow
9:54 AM 27.1 °F 23.2 °F 26.2 °F 96% 29.08 in 7.0 mi West 3.5 mph - N/A   Overcast
10:48 AM 28.4 °F 22.2 °F 28.4 °F 100% 29.12 in 4.0 mi WSW 5.8 mph - N/A Snow Light Snow
10:54 AM 28.2 °F 22.0 °F 27.7 °F 98% 29.13 in 4.0 mi WSW 5.8 mph - N/A Snow Light Snow
11:00 AM 28.4 °F 24.6 °F 28.4 °F 100% 29.12 in 2.0 mi WSW 3.5 mph - N/A Snow Light Snow
11:54 AM 29.5 °F 25.9 °F 28.9 °F 98% 29.16 in 2.0 mi WSW 3.5 mph - N/A Snow Light Snow
12:54 PM 28.8 °F 22.6 °F 28.2 °F 98% 29.19 in 3.0 mi WSW 5.8 mph - N/A Snow Light Snow
1:54 PM 28.8 °F 22.6 °F 28.2 °F 98% 29.21 in 3.0 mi WSW 5.8 mph - N/A Snow Light Snow
2:01 PM - - - N/A% 29.22 in - North - - N/A   Unknown
2:47 PM 28.4 °F 23.3 °F 26.6 °F 93% 29.24 in 3.0 mi West 4.6 mph - N/A Snow Light Snow
2:54 PM 28.0 °F 22.8 °F 27.0 °F 96% 29.25 in 3.0 mi West 4.6 mph - N/A Snow Light Snow
3:54 PM 28.0 °F 22.8 °F 27.0 °F 96% 29.28 in 4.0 mi West 4.6 mph - N/A Snow Light Snow
4:18 PM 28.4 °F 23.3 °F 26.6 °F 93% 29.30 in 2.0 mi West 4.6 mph - N/A Snow Light Snow
4:54 PM 27.0 °F 20.5 °F 26.4 °F 98% 29.33 in 2.0 mi West 5.8 mph - N/A Snow Light Snow
5:54 PM 27.1 °F 21.8 °F 26.4 °F 97% 29.37 in 2.0 mi West 4.6 mph - N/A Snow Light Snow
6:08 PM 26.6 °F 21.2 °F 26.6 °F 100% 29.37 in 3.0 mi West 4.6 mph - N/A Snow Light Snow
6:54 PM 27.5 °F 22.2 °F 26.2 °F 95% 29.41 in 5.0 mi West 4.6 mph - N/A Snow Light Snow
7:54 PM 27.0 °F 21.6 °F 25.9 °F 96% 29.45 in 5.0 mi WSW 4.6 mph - N/A Snow Light Snow
8:54 PM 27.5 °F 21.1 °F 26.2 °F 95% 29.49 in 7.0 mi West 5.8 mph - N/A Snow Light Snow
9:54 PM 26.8 °F 20.2 °F 25.0 °F 93% 29.53 in 10.0 mi West 5.8 mph - N/A   Scattered Clouds
10:54 PM 25.5 °F 18.7 °F 24.1 °F 94% 29.58 in 10.0 mi West 5.8 mph - N/A   Scattered Clouds
11:54 PM 24.1 °F 18.2 °F 23.0 °F 96% 29.63 in 10.0 mi West 4.6 mph - N/A   Partly Cloudy